Voltar ao catálogo

STARLINK-34405

AtivoComunicaçõesVLEO
NORAD 64704·PAYLOAD·🇺🇸 United States

Lançado Jun 28, 2025 de Vandenberg Space Force Base

Loading…

Próximas Passagens (próximas 24 horas)

TLE

AtualizadoSource: CelesTrak SupGP

Época: Sep 15, 2026, 03:13 UTC

1 64704C 25142J   26258.13451389 -.00030224  00000+0 -10514-2 0  2585
2 64704  70.0014 195.3416 0003114 274.2500 112.0875 15.29594001    14

Acompanhe STARLINK-34405 em tempo real com AllMySat

Download on the App Store